Tracking 25710 objects as of 7-Jul-2022
HD Live streaming from Space Station
objects crossing your sky now

FENGYUN 1C DEB

Track FENGYUN 1C DEB now!
10-day predictions


NORAD ID: 36694
Int'l Code: 1999-025DZQ
Perigee: 770.7 km
Apogee: 932.1 km
Inclination: 99.1 °
Period: 101.8 minutes
Semi major axis: 7222 km
RCS: 0.0069 m2 (small)
Launch date: May 10, 1999
Source: People's Republic of China (PRC)
Launch site: Taiyaun Space Center, China (TSC)

Note: This is SATELLITE DEBRIS
aabbcc
Your satellite tracking list
Your tracking list is empty




NASA's NSSDC Master Catalog

Two Line Element Set (TLE):
1 36694U 99025DZQ 22184.21774661  .00000553  00000-0  29547-3 0  9997
2 36694  99.1328 177.7620 0111684 287.5196  71.3797 14.14424153458247
Source of the keplerian elements: AFSPC